Temperature
20 20 20 20 20 19 19 19 19 19 18 18 18 18 18 18 18 18 18 17 17 17 17 17 17 17 17 17 17 17 17 17 17 17 17 16 16 16 16 16 16 16 16
20 19 19 19 19 19 19 19 19 19 18 18 18 18 18 17 17 17 17 17 17 17 17 17 17 17 16 17 17 17 16 16 16 17 16 16 16 16 16 16 15 15 15
19 19 19 19 19 19 19 19 19 18 18 18 18 18 18 17 17 17 17 17 17 17 17 16 16 16 16 16 16 16 16 16 16 16 16 16 16 16 16 15 15 15 15
19 19 19 19 19 19 19 18 18 18 18 18 18 18 18 17 17 17 17 17 17 17 17 16 16 16 16 16 16 16 16 16 16 16 16 16 16 16 15 15 15 15 15
19 19 19 19 19 18 18 18 18 18 18 18 18 17 17 17 17 17 17 17 16 16 16 16 16 16 16 16 16 16 16 16 16 16 16 16 16 15 15 15 15 15 15
19 18 19 18 18 18 18 18 18 18 18 17 17 17 17 17 17 17 17 16 16 16 16 16 16 16 16 16 16 16 16 16 16 16 16 16 15 15 15 15 15 15 15
18 18 18 18 18 18 18 17 17 17 17 17 17 17 17 17 17 17 17 16 16 16 16 16 16 16 16 16 16 16 16 16 16 16 15 15 15 15 15 15 15 15 15
18 18 18 17 17 17 17 17 17 17 17 17 17 17 17 17 17 17 16 16 16 16 16 15 15 15 15 15 15 15 15 15 15 15 15 15 15 15 15 15 15 14 14
18 17 17 17 17 17 17 17 17 17 17 17 17 16 16 16 16 16 16 15 15 15 15 15 15 15 15 15 15 15 15 15 15 15 15 15 15 15 15 15 14 14 14
17 17 17 17 17 17 16 16 16 16 16 16 16 16 16 16 16 16 16 15 15 15 15 15 15 15 15 15 15 14 14 14 14 14 14 15 15 15 15 14 14 14 14
17 17 17 17 17 16 16 16 16 16 15 16 15 15 15 15 15 15 15 15 15 15 15 15 15 15 15 14 14 14 14 14 14 14 14 14 14 14 14 14 14 14 14
16 16 16 16 16 16 16 16 15 15 15 15 15 15 15 15 15 15 15 15 15 14 14 14 14 14 14 14 14 14 14 14 13 13 13 14 14 14 14 13 14 14 14
16 16 15 15 15 15 15 15 15 15 15 15 15 15 15 15 15 14 14 14 14 14 14 14 14 14 14 13 13 13 13 13 13 13 13 13 13 13 13 13 13 13 13
15 15 15 15 15 15 15 15 15 15 15 15 15 15 15 15 14 14 14 14 14 13 13 13 13 13 13 13 13 13 13 13 13 13 13 13 13 13 13 13 13 13 13
15 15 14 15 15 14 14 14 14 14 14 14 14 14 14 14 14 14 14 13 13 13 13 13 12 12 12 12 12 12 12 12 12 12 12 13 13 13 12 13 12 12 12
14 14 14 14 14 14 14 14 14 14 14 14 14 13 13 13 13 14 13 13 13 13 12 12 12 12 12 12 12 12 12 12 12 12 12 12 12 12 12 12 12 12 12
13 13 14 14 14 14 14 14 14 13 13 13 13 13 13 13 13 13 13 13 13 12 12 12 12 12 12 12 12 11 11 11 11 11 11 11 11 11 11 11 11 11 11
13 13 13 13 13 13 13 13 13 13 13 12 12 12 12 12 12 12 12 12 12 12 11 11 11 11 11 11 11 11 11 11 11 11 11 11 11 11 11 11 11 11 11
13 13 13 13 13 13 13 13 13 12 12 12 12 12 12 12 12 12 11 11 11 11 11 11 11 11 11 10 10 10 10 10 10 10 10 10 10 10 10 10 10 10 10
13 13 12 12 13 13 13 12 12 12 12 12 12 12 11 11 11 11 11 11 11 11 10 10 10 10 10 10 10 10 9 9 10 9 9 9 9 9 10 10 10 10 10
12 12 12 12 12 12 12 12 12 12 12 11 11 11 11 11 11 11 11 10 10 10 10 10 10 10 9 9 9 9 9 9 9 9 9 9 9 9 9 9 9 9 9
12 12 12 12 12 12 12 12 12 11 11 11 11 11 11 10 10 10 10 10 10 10 10 9 10 9 9 9 9 9 9 9 9 9 9 9 9 9 9 9 9 9 9
12 12 12 12 11 11 11 11 11 11 11 11 11 10 10 10 10 10 10 10 9 9 9 9 9 9 9 9 9 9 8 8 8 8 8 9 9 8 8 8 8 8 8
11 11 11 11 11 11 11 11 11 11 10 10 10 10 10 9 9 9 9 9 9 9 9 9 9 8 8 8 8 8 8 8 8 8 8 8 8 8 8 8 8 8 8
11 11 11 11 11 10 10 10 10 10 10 10 9 9 9 9 9 9 9 9 8 8 8 8 8 8 8 8 8 8 8 8 8 8 8 8 8 7 7 7 7 8 8
11 11 10 10 10 10 10 10 10 9 9 9 9 9 8 8 8 8 8 8 8 8 8 8 8 8 8 7 7 8 8 8 8 8 8 7 7 7 7 7 7 7 7
Wind_Speed
12 11 11 10 10 10 9 9 9 8 8 8 8 8 8 8 8 8 8 8 8 8 8 8 8 7 6 6 5 6 6 6 6 5 4 3 4 5 3 4 5 5 5
11 10 10 9 9 9 10 9 9 9 9 8 8 9 9 9 8 9 9 9 8 8 8 8 8 7 7 7 6 6 6 6 7 7 5 4 5 5 5 5 5 5 5
10 10 9 9 9 9 9 9 9 9 9 9 9 9 8 8 9 9 9 9 9 9 8 9 9 8 8 6 7 7 6 6 6 7 6 4 5 5 5 6 6 5 6
9 9 9 9 9 8 8 8 8 8 8 9 9 9 8 8 8 8 8 8 8 8 8 9 9 9 8 8 8 8 7 7 7 7 7 6 5 5 5 5 5 5 6
8 8 8 7 7 7 7 8 8 8 8 8 8 8 8 8 7 8 8 9 8 8 8 8 8 7 7 7 7 7 7 7 7 7 7 6 6 5 6 6 6 5 5
7 7 6 6 6 7 8 8 8 9 8 8 8 8 8 7 4 5 8 8 8 8 8 8 8 8 8 8 8 8 7 8 8 7 7 7 7 7 6 7 6 6 5
7 6 6 7 7 7 8 8 9 9 8 8 9 8 8 7 6 6 7 8 8 8 8 7 8 7 8 8 8 9 8 8 9 9 9 8 7 6 6 8 7 8 7
6 6 7 7 7 7 8 9 9 8 8 8 8 8 8 7 7 7 7 9 8 8 8 8 8 7 6 6 7 8 9 9 9 9 8 8 7 5 7 9 9 9 8
5 6 7 7 7 7 8 8 8 8 8 8 8 8 9 7 8 8 8 7 7 8 8 8 7 7 5 5 8 8 9 8 8 8 8 8 7 7 7 7 7 7 7
4 5 5 6 7 7 7 7 7 7 8 8 8 8 9 8 7 8 8 6 6 6 7 7 8 7 6 6 8 8 9 8 8 8 8 10 10 10 11 10 9 8 7
4 4 4 5 6 7 6 6 6 7 7 7 7 8 8 8 8 9 9 6 6 6 7 7 6 7 6 7 9 8 7 7 8 9 8 8 8 8 9 9 9 9 9
4 4 4 5 5 5 5 5 6 6 6 7 6 7 6 6 7 8 9 8 7 7 7 6 4 6 6 7 7 6 7 8 8 8 8 8 7 8 7 8 9 10 10
4 4 4 4 4 5 5 6 6 6 6 6 5 6 6 5 6 9 10 10 9 7 6 3 3 5 7 8 9 10 9 8 7 8 8 8 7 7 7 7 8 8 9
4 4 4 4 5 4 5 6 6 6 6 5 6 6 6 5 5 5 5 6 7 7 6 5 6 8 8 7 7 8 7 7 7 7 7 7 6 6 6 6 6 6 6
4 4 4 4 3 3 3 4 5 4 4 5 5 6 6 5 3 1 4 5 5 5 5 6 6 5 5 5 5 5 5 5 6 7 7 7 6 6 6 6 5 6 6
3 4 3 3 3 4 3 2 1 3 1 3 5 5 4 3 3 3 3 3 4 5 6 7 6 5 5 5 5 5 5 5 5 5 6 6 6 6 6 5 5 6 6
4 4 4 4 4 4 4 3 3 2 2 3 4 5 5 4 4 4 5 4 6 7 6 6 5 5 5 5 5 5 5 4 4 5 5 5 5 6 5 5 5 5 6
4 4 5 4 4 4 4 4 4 4 3 2 2 5 6 6 6 6 6 5 5 6 6 5 5 4 4 4 5 5 4 4 4 5 5 5 5 5 5 5 5 5 5
4 4 4 4 4 4 4 4 4 4 4 3 3 2 5 6 7 8 8 5 5 5 5 4 4 4 4 4 5 4 4 5 4 5 5 5 5 5 5 5 5 5 6
4 3 4 4 4 4 4 4 4 3 3 3 3 3 3 3 3 4 4 5 5 5 5 4 4 4 4 4 4 4 5 5 5 5 5 5 5 5 5 6 5 5 5
4 3 4 4 4 4 4 4 3 3 3 3 4 2 2 4 4 4 4 4 4 4 4 4 4 4 3 3 3 4 5 4 4 4 5 5 5 5 5 5 5 5 5
4 4 4 3 3 3 3 3 3 3 3 4 3 2 3 4 3 3 3 3 3 3 3 3 3 3 3 3 4 4 4 4 4 4 4 4 4 5 5 5 5 5 5
4 4 3 3 2 2 2 3 3 3 3 4 3 3 3 3 3 3 3 3 3 3 3 3 3 3 3 3 4 4 4 4 4 5 5 4 4 4 5 5 6 5 5
3 3 3 2 2 2 2 2 3 3 3 3 3 3 2 2 3 2 2 3 3 3 3 3 3 4 5 4 4 4 3 4 5 5 6 5 5 5 5 5 5 6 6
3 2 2 2 2 2 2 2 2 2 2 2 2 2 2 2 2 2 2 2 3 3 4 3 3 4 5 5 5 4 3 4 5 5 6 5 6 6 5 5 5 5 5
2 2 2 2 2 2 2 2 2 2 1 1 2 2 2 2 2 2 2 2 3 3 3 3 4 4 5 4 4 2 2 3 4 6 6 5 6 5 5 5 6 5 5
Wind_Direction
203 203 204 202 205 208 212 215 214 215 214 217 220 222 224 225 226 227 235 236 234 236 237 236 238 248 249 244 239 240 244 247 257 267 259 243 240 257 244 248 242 238 214
199 199 201 202 203 207 209 212 213 213 216 218 220 223 227 228 227 229 233 235 233 234 237 240 242 238 238 244 244 241 242 243 249 259 266 255 245 245 248 251 248 246 243
192 195 199 202 204 208 210 211 212 215 219 220 221 223 227 230 231 232 234 237 236 236 238 240 239 239 239 238 240 243 242 240 239 249 253 248 247 239 242 248 252 252 250
193 194 199 205 206 207 206 208 210 212 217 221 223 224 225 227 229 233 234 236 238 239 239 240 240 239 240 240 237 239 244 246 239 244 250 245 243 236 239 245 248 240 247
196 199 202 203 201 202 203 206 211 212 215 220 225 227 228 227 227 229 235 234 234 238 240 241 240 238 245 246 250 245 243 246 245 244 247 249 245 237 242 246 251 250 241
200 203 197 196 199 202 203 205 211 215 216 216 221 225 228 231 205 220 240 241 238 237 238 239 238 231 229 229 245 254 253 245 248 250 250 252 254 251 249 252 251 251 248
201 202 199 201 203 206 206 208 214 216 215 217 221 224 229 225 204 213 233 243 243 242 240 241 247 241 234 239 228 228 237 241 245 249 254 257 259 257 254 253 251 253 256
206 210 209 209 208 205 208 211 214 218 218 220 224 228 231 222 195 210 226 238 244 242 241 241 243 249 244 245 242 241 242 241 240 242 249 254 258 259 250 254 256 253 253
215 219 219 217 217 213 214 215 213 214 220 222 223 227 229 221 196 202 223 238 239 244 243 240 240 241 228 232 243 246 248 247 234 228 242 252 264 255 248 253 250 249 252
239 233 230 226 224 223 221 217 218 218 223 228 227 229 229 227 198 200 220 238 238 243 239 234 227 227 218 222 239 245 250 253 256 249 242 240 243 237 221 232 245 249 254
257 246 237 231 226 223 224 221 221 224 226 234 234 233 230 224 200 197 213 235 243 250 250 241 229 188 206 222 242 246 248 257 259 255 252 247 239 237 232 229 236 244 251
258 247 244 239 237 226 217 220 223 227 227 228 234 239 229 216 209 200 206 224 247 247 254 249 224 178 212 231 239 243 247 251 254 256 254 251 248 246 243 239 238 243 251
254 246 241 239 236 229 224 220 222 224 233 234 232 243 241 227 206 192 200 212 226 241 254 267 252 215 223 234 227 230 237 246 253 255 256 256 254 250 246 243 242 243 248
246 246 240 230 229 229 236 233 233 233 234 236 237 241 241 234 233 222 225 223 220 233 246 240 223 224 229 239 238 232 239 248 253 257 262 264 263 254 245 243 245 246 248
252 253 254 247 238 245 251 262 254 255 251 243 248 249 249 244 237 262 237 239 244 245 246 245 245 243 244 246 248 250 251 248 249 253 257 260 263 258 252 246 245 248 249
263 257 261 259 244 241 241 256 266 251 203 225 250 257 254 227 205 220 234 239 242 230 234 243 245 244 244 248 249 251 253 255 258 262 262 260 260 262 262 258 248 242 245
279 279 275 269 262 252 246 244 260 263 218 232 227 227 229 230 216 216 219 225 233 220 229 240 243 242 246 251 253 254 258 262 265 262 261 261 262 263 264 263 256 250 248
274 273 267 266 264 263 257 255 255 258 264 279 239 207 205 210 214 215 212 211 226 221 234 237 236 239 243 254 259 259 264 264 261 265 265 262 258 257 260 263 261 258 256
265 269 275 279 274 268 260 254 253 252 253 259 271 245 200 201 206 208 204 225 233 235 240 243 241 240 242 248 257 262 262 262 263 262 264 264 259 258 257 259 263 258 254
251 249 265 274 274 268 262 259 256 252 250 259 265 264 233 227 232 217 219 233 237 236 236 239 241 243 244 250 260 263 262 259 259 258 259 258 257 257 253 252 257 259 256
259 238 219 251 262 267 266 262 263 263 261 266 273 275 266 249 247 242 237 236 238 241 239 240 241 243 246 251 259 262 265 266 262 260 258 257 259 259 257 253 249 252 253
254 254 249 257 263 261 270 265 256 260 265 271 280 247 210 241 248 246 245 244 241 241 243 241 240 245 252 251 252 258 261 262 262 259 260 261 262 262 261 258 255 254 251
251 248 247 250 261 266 263 267 262 260 266 271 281 284 259 250 242 239 238 240 246 250 248 248 251 256 264 264 259 258 258 259 260 258 255 256 258 259 261 262 259 259 255
247 247 241 242 250 260 265 269 269 269 268 271 274 277 266 250 254 257 257 249 243 249 251 251 253 260 269 272 270 265 267 282 274 258 255 258 258 256 255 258 259 258 257
237 230 228 231 239 253 267 265 265 271 271 273 272 273 277 264 250 243 245 243 245 250 254 256 253 256 261 266 271 272 344 318 291 277 253 249 252 255 255 257 256 256 253
223 222 219 227 244 256 259 259 263 266 264 270 273 272 280 278 261 244 244 248 253 251 256 256 257 262 263 259 263 326 312 283 280 277 260 244 244 247 251 251 254 249 252
Height
1510 1512 1515 1517 1519 1521 1523 1525 1526 1528 1529 1530 1531 1532 1533 1534 1535 1535 1536 1537 1537 1537 1537 1538 1538 1538 1539 1539 1539 1539 1539 1540 1539 1539 1539 1537 1536 1536 1535 1535 1534 1534 1533
1506 1508 1510 1512 1514 1516 1518 1520 1522 1523 1524 1526 1527 1528 1529 1530 1530 1531 1532 1532 1533 1533 1534 1534 1534 1535 1535 1535 1535 1536 1536 1536 1536 1535 1535 1534 1533 1533 1532 1531 1531 1531 1530
1502 1504 1506 1508 1510 1512 1514 1516 1517 1519 1520 1522 1523 1524 1524 1525 1526 1527 1528 1528 1529 1529 1529 1530 1530 1531 1531 1531 1531 1532 1532 1532 1532 1532 1531 1531 1530 1529 1528 1528 1528 1527 1527
1498 1500 1501 1503 1506 1507 1509 1511 1513 1514 1516 1517 1519 1519 1520 1521 1521 1522 1523 1524 1524 1525 1525 1525 1526 1526 1527 1527 1528 1527 1528 1528 1527 1527 1527 1527 1526 1525 1525 1525 1525 1524 1524
1494 1496 1497 1499 1501 1503 1505 1507 1509 1510 1511 1513 1514 1515 1516 1516 1517 1518 1518 1519 1519 1520 1520 1520 1521 1521 1522 1523 1524 1523 1523 1523 1523 1523 1523 1523 1522 1521 1521 1521 1521 1520 1520
1491 1493 1494 1495 1497 1499 1501 1503 1505 1506 1507 1508 1509 1510 1511 1512 1512 1513 1514 1515 1515 1515 1515 1515 1516 1516 1517 1517 1518 1518 1519 1519 1519 1519 1518 1518 1518 1518 1517 1517 1517 1517 1516
1488 1489 1490 1491 1493 1494 1496 1498 1500 1501 1502 1503 1504 1505 1506 1507 1508 1508 1509 1509 1510 1510 1510 1510 1511 1512 1512 1512 1513 1513 1513 1513 1513 1514 1513 1513 1513 1513 1512 1513 1513 1512 1512
1485 1487 1487 1488 1489 1490 1492 1493 1495 1497 1497 1499 1499 1501 1502 1502 1503 1504 1504 1504 1505 1504 1505 1505 1506 1506 1507 1507 1508 1508 1508 1508 1508 1508 1508 1508 1508 1508 1508 1508 1508 1508 1507
1482 1484 1484 1485 1486 1487 1488 1489 1490 1491 1493 1494 1495 1496 1497 1497 1498 1499 1499 1499 1499 1499 1500 1500 1500 1501 1501 1501 1502 1502 1503 1503 1503 1502 1502 1502 1502 1502 1502 1503 1503 1504 1503
1480 1481 1481 1482 1483 1483 1484 1485 1487 1488 1489 1490 1491 1491 1492 1493 1493 1493 1494 1495 1494 1495 1494 1494 1494 1495 1495 1496 1496 1497 1496 1497 1497 1497 1497 1496 1496 1497 1497 1497 1498 1498 1498
1477 1478 1478 1479 1479 1480 1480 1481 1483 1484 1485 1485 1486 1487 1487 1488 1488 1489 1489 1490 1489 1489 1489 1489 1489 1489 1490 1490 1491 1491 1490 1491 1491 1491 1491 1491 1491 1491 1491 1491 1491 1492 1492
1474 1474 1475 1475 1476 1477 1476 1476 1478 1479 1480 1480 1481 1482 1483 1483 1483 1484 1485 1485 1485 1484 1484 1484 1484 1483 1484 1485 1485 1485 1485 1485 1486 1486 1486 1486 1486 1486 1485 1485 1485 1485 1485
1470 1471 1471 1471 1472 1472 1472 1472 1473 1475 1475 1476 1476 1477 1478 1478 1479 1479 1479 1479 1479 1479 1480 1479 1479 1478 1478 1479 1479 1480 1479 1479 1480 1480 1480 1481 1481 1480 1480 1479 1479 1479 1479
1466 1467 1467 1467 1467 1468 1468 1469 1469 1470 1470 1471 1471 1472 1473 1473 1474 1474 1474 1474 1474 1475 1475 1474 1474 1473 1474 1474 1474 1474 1474 1474 1474 1474 1474 1475 1475 1475 1474 1474 1474 1474 1473
1463 1463 1463 1463 1463 1463 1464 1464 1464 1464 1465 1465 1466 1468 1468 1468 1468 1469 1469 1469 1470 1470 1470 1470 1470 1470 1470 1470 1470 1469 1469 1469 1469 1469 1469 1469 1469 1469 1468 1468 1468 1468 1468
1459 1460 1460 1460 1460 1460 1459 1459 1459 1460 1460 1460 1461 1461 1462 1462 1463 1463 1464 1464 1465 1465 1465 1465 1465 1465 1465 1465 1464 1464 1464 1464 1464 1463 1463 1463 1463 1463 1463 1463 1463 1463 1463
1456 1456 1457 1457 1456 1456 1456 1456 1455 1455 1455 1455 1455 1456 1456 1457 1458 1458 1459 1459 1460 1460 1460 1460 1460 1460 1460 1460 1460 1459 1459 1459 1459 1459 1459 1458 1458 1458 1458 1458 1458 1458 1458
1453 1454 1454 1453 1453 1452 1452 1452 1451 1451 1451 1450 1451 1451 1452 1452 1453 1453 1454 1454 1455 1455 1456 1456 1455 1455 1455 1455 1455 1455 1454 1454 1454 1454 1454 1454 1454 1453 1453 1453 1454 1453 1453
1451 1451 1450 1450 1449 1449 1449 1448 1448 1448 1447 1447 1447 1447 1447 1448 1448 1448 1449 1450 1450 1451 1451 1451 1451 1451 1451 1451 1451 1450 1450 1450 1450 1450 1450 1449 1449 1449 1449 1449 1449 1449 1449
1447 1447 1446 1446 1446 1445 1445 1445 1445 1444 1444 1444 1444 1444 1444 1444 1444 1444 1445 1445 1446 1446 1446 1446 1446 1446 1446 1446 1446 1446 1445 1445 1445 1445 1445 1445 1445 1445 1445 1445 1445 1445 1445
1444 1444 1443 1443 1443 1443 1442 1442 1441 1441 1441 1441 1440 1440 1440 1440 1440 1440 1440 1441 1441 1442 1442 1442 1442 1442 1442 1442 1442 1441 1441 1440 1440 1440 1440 1440 1441 1441 1441 1441 1441 1441 1441
1442 1441 1441 1441 1440 1440 1439 1439 1439 1438 1438 1438 1437 1436 1436 1437 1437 1437 1437 1437 1437 1437 1438 1438 1438 1438 1438 1437 1437 1437 1436 1436 1436 1436 1436 1436 1437 1437 1437 1437 1437 1437 1437
1439 1439 1438 1438 1438 1437 1437 1437 1436 1436 1436 1435 1435 1434 1434 1434 1434 1433 1433 1433 1433 1433 1433 1434 1434 1433 1433 1433 1432 1432 1431 1431 1432 1432 1432 1432 1432 1433 1433 1433 1432 1433 1433
1436 1436 1435 1435 1435 1435 1435 1434 1434 1434 1433 1433 1432 1431 1430 1430 1430 1429 1429 1429 1429 1429 1429 1429 1429 1429 1428 1428 1427 1427 1427 1427 1427 1427 1427 1427 1428 1429 1429 1429 1429 1429 1430
1433 1432 1432 1432 1432 1432 1432 1432 1431 1431 1431 1430 1429 1428 1427 1427 1426 1426 1426 1426 1425 1425 1425 1425 1425 1425 1424 1423 1423 1422 1422 1422 1423 1423 1423 1424 1424 1425 1425 1425 1425 1426 1426
1430 1430 1430 1430 1430 1429 1429 1429 1428 1428 1428 1427 1426 1425 1425 1424 1423 1423 1423 1422 1422 1422 1422 1422 1421 1421 1420 1420 1419 1418 1418 1418 1418 1418 1419 1420 1420 1421 1421 1422 1422 1422 1422